Location: Unspecified
(0.0000°N, 0.0000°E)
Time: 17:55:13
(UTC+00:00)

STARLINK 1046 - Pass Details

Date: 20 January 2020
Orbit: 548 x 551 km, 53.0° (Epoch: 17 January)

Event Time Altitude Azimuth Distance (km) Brightness Sun altitude
Rises 04:27:41 0° 180° (S) 2,714 7.4 -24.1°
Reaches altitude 10° 04:31:15 10° 148° (SSE) 1,817 7.0 -23.3°
Maximum altitude 04:32:51 12° 125° (SE) 1,691 7.1 -22.9°
Drops below altitude 10° 04:34:28 10° 102° (ESE) 1,814 7.4 -22.5°
Sets 04:37:59 0° 70° (ENE) 2,703 7.9 -21.7°
